Regional Weather Roundup
Issued by NWS Wakefield, VA

Home | Current Version | Previous Version | Graphics & Text | Print | Product List | Glossary On
Versions: 1 2 3 4 5 6 7 8 9 10 11 12 13 14 15 16 17 18 19 20 21 22 23 24 25 26 27 28
000
ASUS41 KAKQ 271315
RWRAKQ

REGIONAL WEATHER ROUNDUP
NATIONAL WEATHER SERVICE WAKEFIELD VA
900 AM EDT MON MAR 27 2017

Note: "fair" indicates few or no clouds below 12,000 feet with no
significant weather and/or obstructions to visibility. * = Denotes
station may not report precipitation (e.g., rain,snow,etc.),
thunder or fog.

VAZ042-051-052>054-056-271400-
NORTHERN VIRGINIA

CITY           SKY/WX    TMP DP  RH WIND       PRES   REMARKS
WASH NATIONAL  DRZL/FOG  48  48 100 S3        30.10S VSB 1/4
DULLES         CLOUDY    48  46  93 S7        30.09S FOG
FORT BELVOIR   CLOUDY    48  48 100 S3        30.09F FOG
QUANTICO       FOG       48  48 100 CALM      30.11S VSB 1/4
FREDERICKSBRG* FOG       50  50 100 CALM      30.09S VSB 1/2
STAFFORD*      FOG       48  48 100 CALM      30.14R VSB 1/2
WARRENTON      CLOUDY    50  47  91 CALM      30.08S
CULPEPER*      CLOUDY    50  50 100 S5        30.10S FOG
MANASSAS*      CLOUDY    49  48  97 S6        30.09F FOG
LEESBURG*      CLOUDY    48  48 100 S6        30.09S FOG
WINCHESTER     CLOUDY    48  46  93 CALM      30.05S
FRONT ROYAL*   CLOUDY    50  50 100 CALM      30.04F
LURAY*         CLOUDY    52  52 100 CALM      30.05F
$$

VAZ048-049-060>072-079>083-271400-
CENTRAL AND SOUTH CENTRAL VIRGINIA

CITY           SKY/WX    TMP DP  RH WIND       PRES   REMARKS
RICHMOND       CLOUDY    62  56  80 SW12      30.11S
CHESTERFIELD*  CLOUDY    61  43  51 SW7       30.13S
PETERSBURG*    LGT RAIN  59  54  85 S5        30.13S
HANOVER        CLOUDY    58  53  84 S7        30.11F
TAPPAHANNOCK*  CLOUDY    61  58  91 S5        30.11F
QUINTON*       CLOUDY    60  57  90 S8        30.11F
CHARLOTTSVILLE CLOUDY    51  50  96 S3        30.09S FOG
GORDONSVILLE*  CLOUDY    50  50 100 CALM      30.09S FOG
ORANGE*        CLOUDY    48  48 100 CALM      30.11R FOG
LOUISA*        FOG       55  54  94 CALM      30.09R VSB 3/4
BUMPASS*       CLOUDY    52  52 100 S3        30.09S
FARMVILLE*     CLOUDY    55  55 100 CALM      30.08F FOG
CREWE*         CLOUDY    58  58 100 S3        30.10F
FORT PICKETT*  CLOUDY    60  56  88 S13       30.12S
CHASE CITY*    CLOUDY    59  58  94 CALM      30.12S
CLARKSVILLE*   CLOUDY    59  59 100 S6        30.12F
SOUTH HILL*    CLOUDY    59  56  91 S7        30.18F
LAWRENCEVILLE* CLOUDY    61  55  81 SW9       30.13S
EMPORIA*       PTSUNNY   59  54  82 S5        30.15F
$$

VAZ088>098-271400-
SOUTHEAST VIRGINIA

CITY           SKY/WX    TMP DP  RH WIND       PRES   REMARKS
NORFOLK        PTSUNNY   62  54  74 S10       30.15R
VIRGINIA BEACH MOSUNNY   65  52  62 SW13      30.15R
NORFOLK NAVAL  PTSUNNY   64  54  69 S8        30.15S
WEST POINT*    CLOUDY    61  55  81 S8        30.14S
SALUDA*        PTSUNNY   60  56  88 S6        30.12S
NEWPORT NEWS   CLOUDY    63  55  75 SW10      30.14S
LANGLEY AFB    PTSUNNY   64  56  76 S10       30.13F
FORT EUSTIS    PTSUNNY   62  55  78 S6        30.11S
WILLIAMSBURG*  MOSUNNY   61  57  88 S5        30.14S
HR EXEC AP*    FAIR      63  55  77 SW10      30.14R
FRANKLIN*      CLOUDY    61  55  81 S9        30.15F
US460-WAKEFLD  MOSUNNY   60  57  89 S6        30.14S
$$

VAZ020-022-025-037-045-271400-
WEST CENTRAL AND SOUTHWEST VIRGINIA

CITY           SKY/WX    TMP DP  RH WIND       PRES   REMARKS
STAUNTON*      CLOUDY    54  52  95 S5        30.08S
WAYNESBORO*    CLOUDY    54  54 100 CALM      30.08R
HOT SPRINGS VA CLOUDY    52  52 100 SW10      30.10S
LYNCHBURG      CLOUDY    56  55  97 SW6       30.11R
DANVILLE       CLOUDY    60  59  96 MISG      30.11S
SOUTH BOSTON*  CLOUDY    61  59  95 S6        30.12R
MARTINSVILLE   CLOUDY    58  57  96 CALM      30.13R
ROANOKE        CLOUDY    57  55  93 SE3       30.11R
BLACKSBURG     CLOUDY    59  56  89 S3        30.13S
DUBLIN*        CLOUDY    60  58  95 SW3       30.11R
MARION*        CLOUDY    57  56  96 CALM      30.13S
HILLSVILLE*    CLOUDY    57  56  97 CALM      30.11R
RICHLANDS*     PTSUNNY   59  53  79 SW3       30.10R
WISE*          CLOUDY    57  52  82 CALM      30.10R
ABINGDON*      CLOUDY    58  57  96 CALM      30.09S
$$

MDZ021>025-VAZ099-100-271400-
SOUTHERN MARYLAND AND THE DELMARVA PENINSULA

CITY           SKY/WX    TMP DP  RH WIND       PRES   REMARKS
PATUXENT RIVER CLOUDY    58  57  97 SW6       30.10S
BAY BRIDGE APT FOG       46  46 100 CALM      30.09F VSB 1/4
LEONARDTOWN    CLOUDY    54  52  94 SW5       30.10F
DOVER          MOSUNNY   52  52 100 W6        30.08S
GEORGETOWN       N/A     58  54  86 MISG      30.10F
EASTON         CLOUDY    34  48 100 CALM      30.13F FOG
CAMBRIDGE      CLOUDY    57  54  88 S5        30.10S
SALISBURY      CLOUDY    59  56  89 S10       30.11S
OCEAN CITY     CLOUDY    53  50  89 SW6       30.13S
WALLOPS ISLAND CLOUDY    53  53 100 S8        30.14S
ACCOMACK*      CLOUDY    60  55  82 S7        30.14S
$$

NCZ012>017-030>032-271400-
NORTH CENTRAL AND EASTERN NORTH CAROLINA

CITY           SKY/WX    TMP DP  RH WIND       PRES   REMARKS
ROANOKE RAPIDS CLOUDY    61  55  82 SW6       30.15S
RALEIGH        LGT RAIN  60  58  92 S6        30.15S
ELIZABETH CITY CLOUDY    63  56  78 S6        30.17R
AHOSKIE*         N/A     62  56  82 CALM      30.16S
EDENTON*       PTSUNNY   64  57  77 S7        30.18S
CURRITUCK*     MOSUNNY   63  55  75 CALM      30.18R
KILL DEVIL HLS NOT AVBL
MANTEO         SUNNY     62  55  77 SW5       30.18S
CAPE HATTERAS  SUNNY     70  54  56 S5        30.17S
TARBORO*       NOT AVBL
GOLDSBORO      MOSUNNY   61  61  99 S3        30.15R
WASHINGTON     SUNNY     64  57  78 S3        30.17S
GREENVILLE     SUNNY     64  57  77 S3        30.17S
NEW BERN       SUNNY     63  60  90 CALM      30.18R
WILMINGTON     SUNNY     64  58  80 CALM      30.16R
$$

VAZ048-271400-
ELSEWHERE

CITY           SKY/WX    TMP DP  RH WIND       PRES   REMARKS
HARRISBURG PA  CLOUDY    42  42 100 NE3       30.08F FOG
BALTIMORE      FOG       46  46 100 CALM      30.09S VSB 1/4
ANNAPOLIS      FOG       47  47 100 SE3       30.09F VSB 1/4
ANDREWS AFB    FOG       47  47  99 CALM      30.08S VSB 1/4
PHILADELPHIA   LGT RAIN  44  43  96 SE6       30.09F FOG
HENDERSON NC   CLOUDY    56  55  93 S9        30.13F
GREENSBORO     MOSUNNY   61  60  97 S10       30.10S
ROCKY MOUNT    MOSUNNY   62  57  83 S5        30.16R
$$

VAZ100-271400-
MARINE

STATION/POSITION TIME  TEMP    WIND        PRES    WAVE   SWELL
                       AIR SEA DIR/SP/G            HT/PER HT/PER
                 (UTC) (F)     (DEG/KT/KT) (MB)    (FT/S) (FT/S)
CAPE MAY NJ      1248   49 45  160/  8/ 11 1019.0F
LEWES DE         1242   53 44  210/  3/  5 1019.3F
OCEAN-CITY-INLET 1242   47 45  210/ 10/ 11 1020.8R
WACHAPREAGUE VA  1248   54 51  220/  5/  7 1020.5R
THOMAS POINT MD  1300   46 45  100/  2/  2   N/A
GOOSES REEF MD   1300   46 46  190/  2/  2 1019.6    0
COVE POINT MD    1248   49      CALM  /  1 1019.8F
SOLOMONS ISLAND  1248   51 47  310/  1/  2   N/A
BISHOPS HEAD MD  1248   54 51  180/ 14/ 16 1019.7F
PINEY POINT MD   1248          150/  2/  3   N/A
POTOMAC MD       1300   54 47  210/  8/ 10 1018.6    1/ 2
CAMBRIDGE MD     1248   56 46  200/  4/  5 1018.4F
LEWISETTA VA     1248   60 51  220/  9/ 12 1019.0S
RAPPAHANNOCK LGT 1248          180/ 13/ 13 1020.9R
STINGRAY PT      1250   52     220/  4/  4 1020.8R
YORK RVR RNG VA  1248   54     200/ 10/ 11 1019.8R
YORKTOWN VA      1248   62 50  210/ 10/ 13 1020.1R
JAMESTOWN VA     1300   59 54  190/  6/  8   N/A     0
DOMINION TERM VA 1248   57     190/  8/  9 1020.7S
KIPTOPEKE VA     1242      48  170/  9/  9   N/A
CHES BAY BRIDGE  1248   61 48  210/ 13/ 14 1020.8R
CAPE HENRY VA    1248   64     190/  6/  8   N/A
WILLOUBY STN VA  1248   61     190/ 12/ 13 1021.5R
S CRANEY ISL VA  1248   59     180/  6/  7 1020.8R
CAPE HENRY BUOY  1242      49                N/A     3/ 7
CAPE CHARLES BUO 1251      48                N/A     3/ 8
OFFSHORE WE BUOY 1251      49                N/A     3/ 7   2/18
64NM E OF VA BCH 1250   56 51  190/  8/  8 1021.4R   4/ 7   3/ 7
DUCK PIER NC     1248   63 49  190/  8/  9 1021.0S
44100 DUCK FRF   1235      50                N/A     3/ 7   2/18
44056 DUCK FRF   1230      51                N/A     3/ 7
OREGON INLET NC  1242   62 56  180/  4/  5 1021.8R
HATTERAS NC      1248   71 59  200/  3/  4 1021.5R
DIAMOND SHLS NC  1250   70 76  220/  6/  8 1022.0R   3/ 8   3/ 8
CAPE LOOKOUT NC  1200   66     180/  3/  3 1021.0R
$$




USA.gov is the U.S. government's official web portal to all federal, state and local government web resources and services.